TimeMDT,TemperatureF,Dew PointF,Humidity,Sea Level PressureIn,VisibilityMPH,Wind Direction,Wind SpeedMPH,Gust SpeedMPH,PrecipitationIn,Events,Conditions,WindDirDegrees,DateUTC
12:53 AM,66.0,41.0,40,29.87,10.0,NW,13.8,-,N/A,,Clear,310,2013-07-13 06:53:00
1:53 AM,64.9,37.0,36,29.86,10.0,NW,11.5,-,N/A,,Clear,310,2013-07-13 07:53:00
2:53 AM,63.0,36.0,37,29.87,10.0,NW,9.2,-,N/A,,Clear,310,2013-07-13 08:53:00
3:53 AM,61.0,41.0,48,29.88,10.0,WNW,6.9,-,N/A,,Clear,290,2013-07-13 09:53:00
4:53 AM,60.1,44.1,55,29.89,10.0,West,6.9,-,N/A,,Clear,280,2013-07-13 10:53:00
5:53 AM,60.1,39.0,46,29.89,10.0,NW,9.2,-,N/A,,Clear,310,2013-07-13 11:53:00
6:53 AM,63.0,39.0,41,29.91,10.0,WNW,9.2,-,N/A,,Clear,300,2013-07-13 12:53:00
7:53 AM,64.0,41.0,43,29.92,10.0,NW,6.9,-,N/A,,Clear,310,2013-07-13 13:53:00
8:53 AM,72.0,45.0,38,29.91,10.0,Calm,Calm,-,N/A,,Clear,0,2013-07-13 14:53:00
9:53 AM,75.0,46.9,37,29.91,10.0,SE,4.6,-,N/A,,Clear,140,2013-07-13 15:53:00
10:53 AM,80.1,41.0,25,29.90,10.0,Variable,3.5,-,N/A,,Clear,0,2013-07-13 16:53:00
11:53 AM,82.0,41.0,23,29.90,10.0,East,5.8,-,N/A,,Clear,100,2013-07-13 17:53:00
12:53 PM,84.0,35.1,17,29.90,10.0,ESE,3.5,-,N/A,,Clear,110,2013-07-13 18:53:00
1:53 PM,82.9,35.1,18,29.89,10.0,NNW,10.4,17.3,N/A,,Overcast,330,2013-07-13 19:53:00
2:53 PM,81.0,39.9,23,29.91,10.0,NW,19.6,25.3,N/A,,Partly Cloudy,310,2013-07-13 20:53:00
3:53 PM,82.9,39.0,21,29.91,10.0,NW,27.6,40.3,N/A,,Clear,310,2013-07-13 21:53:00
4:53 PM,80.1,37.9,22,29.94,10.0,NW,25.3,35.7,N/A,,Partly Cloudy,310,2013-07-13 22:53:00
5:53 PM,79.0,37.9,23,29.92,10.0,NW,19.6,24.2,N/A,,Partly Cloudy,310,2013-07-13 23:53:00
6:53 PM,82.9,39.0,21,29.91,10.0,NW,12.7,-,N/A,,Clear,320,2013-07-14 00:53:00
7:53 PM,81.0,37.9,21,29.92,10.0,WNW,8.1,-,N/A,,Scattered Clouds,300,2013-07-14 01:53:00
8:53 PM,73.0,37.9,28,29.93,10.0,WNW,5.8,-,N/A,,Clear,290,2013-07-14 02:53:00
9:53 PM,71.1,37.9,30,29.96,10.0,West,4.6,-,N/A,,Clear,260,2013-07-14 03:53:00
10:53 PM,71.1,39.0,31,29.96,10.0,East,8.1,-,N/A,,Mostly Cloudy,90,2013-07-14 04:53:00
11:53 PM,71.1,39.9,32,29.96,10.0,SW,8.1,-,N/A,,Clear,220,2013-07-14 05:53:00